Location: Lawrence Hall of Science
(37.8785°N, 122.2415°W)
Time: 11:44:28
(UTC-07:00)

ARGOS - Visible Passes

Search period start: 25 July 2017 00:00
Search period end: 04 August 2017 00:00
Orbit: 819 x 836 km, 98.6° (Epoch: 25 July)

Date Brightness Start Highest point End Pass type
(mag) Time Alt. Az. Time Alt. Az. Time Alt. Az.
25 Jul 4.1 21:29:07 16° ESE 21:32:38 32° ENE 21:37:21 10° N visible
25 Jul 4.6 23:10:38 22° SW 23:12:49 30° W 23:17:29 10° NW visible
26 Jul 4.5 21:10:23 11° ESE 21:14:15 22° ENE 21:18:18 10° NNE visible
26 Jul 4.0 22:51:55 29° SSW 22:54:09 44° W 22:59:17 10° NNW visible
27 Jul 4.9 20:52:55 10° E 20:55:55 15° ENE 20:58:55 10° NNE visible
27 Jul 3.3 22:33:11 33° S 22:35:33 67° WSW 22:40:54 10° NNW visible
28 Jul 3.1 22:14:26 32° SSE 22:16:59 83° ENE 22:22:22 10° NNW visible
28 Jul 5.7 23:56:47 10° W 23:57:49 11° W 23:58:52 10° WNW visible
29 Jul 3.3 21:55:42 27° SE 21:58:29 56° ENE 22:03:43 10° N visible
29 Jul 5.3 23:37:14 14° WSW 23:39:02 17° W 23:42:25 10° NW visible
30 Jul 3.8 21:36:59 20° SE 21:40:01 37° ENE 21:44:55 10° N visible
30 Jul 4.8 23:18:30 21° SW 23:20:18 25° W 23:24:41 10° NW visible
31 Jul 4.3 21:18:15 14° ESE 21:21:37 26° ENE 21:25:57 10° NNE visible
31 Jul 4.2 22:59:46 29° SW 23:01:38 37° W 23:06:35 10° NNW visible
01 Aug 4.8 20:59:45 10° ESE 21:03:15 18° ENE 21:06:45 10° NNE visible
01 Aug 3.6 22:41:02 36° SSW 22:43:00 56° W 22:48:17 10° NNW visible
02 Aug 5.1 20:42:57 10° E 20:44:57 12° ENE 20:46:57 10° NE visible
02 Aug 3.1 22:22:19 39° S 22:24:25 84° WSW 22:29:49 10° NNW visible
03 Aug 3.1 22:03:36 34° SE 22:05:54 66° ENE 22:11:13 10° N visible
03 Aug 5.4 23:45:07 13° WSW 23:46:34 14° W 23:49:16 10° WNW visible
